www.pogodaiklimat.ru

Погода и климат >> Архив погоды >> Норвегия >> Стрын-Крокен


ПОГОДА в Стрын-Крокене

  • Прогноз погоды в Стрын-Крокене
  • Монитор погоды в Стрын-Крокене

АРХИВ ПОГОДЫ в Стрын-Крокене

Время (UTC), дата Ветер
(напр.,м/с)
 
Видим.   Явления Облачность Т
(С)
Тd
(С)
f
(%)
Тe
(С)
Тes
(С)
Комфортность P
(гПа)
Po
(гПа)
Тmin
(С)
Tmax
(С)
R
(мм)
R24
(мм)
S
(см)
19 10.06 Ю 1
{2}
н/о н/о +10.0 +7.1 82 +10 +10 1020.8 995.7 0.2
20 10.06 ЮЗ 1
{2}
н/о н/о +10.3 +6.3 76 +10 +10 1021.0 995.9
21 10.06 З 1
{2}
н/о н/о +7.9 +5.7 86 +7 +7 1021.6 996.3
22 10.06 Ю 1
{2}
н/о н/о +6.2 +5.2 93 +5 +5 1022.3 996.8
23 10.06 ЮВ 1
{2}
н/о н/о +6.7 +6.0 95 +6 +6 1022.5 997.1
00 11.06 штиль 0
{2}
н/о н/о +5.4 +4.7 95 +4 +4 1022.6 997.1
01 11.06 ЮВ 1
{2}
н/о н/о +4.8 +4.2 96 +3 +3 1022.8 997.2
02 11.06 штиль 0
{2}
н/о н/о +4.7 +4.3 97 +4 +4 1022.5 996.9
03 11.06 Ю 1
{2}
н/о н/о +4.6 +4.2 97 +3 +3 1022.8 997.2
04 11.06 В 1
{2}
н/о н/о +5.9 +5.5 97 +5 +5 1022.9 997.4
05 11.06 С 1
{2}
н/о н/о +8.0 +6.8 92 +7 +7 1023.2 997.9
06 11.06 С 1
{3}
н/о н/о +10.1 +6.4 78 +10 +10 1023.3 998.1 +4.1 +10.4 0.2
07 11.06 С 1
{2}
н/о н/о +13.2 +6.3 63 +14 +14 1023.0 998.1 0.1
08 11.06 СЗ 2
{3}
н/о н/о +14.7 +6.8 59 +15 +15 1022.9 998.2
09 11.06 СЗ 1
{3}
н/о н/о +17.1 +6.9 51 +18 +18 1022.6 998.1 0.2
10 11.06 В 1
{3}
н/о н/о +19.1 +4.9 39 +21 +21 комфорт 1022.5 998.1 0.1
11 11.06 ЮВ 2
{4}
н/о н/о +19.7 +2.1 31 +21 +21 комфорт 1022.1 997.8
12 11.06 В 2
{5}
н/о н/о +20.2 +1.2 28 +21 +21 комфорт 1021.7 997.4
13 11.06 ЮВ 2
{4}
н/о н/о +21.2 +1.0 26 +21 +21 комфорт 1021.5 997.3
14 11.06 Ю 1
{4}
н/о н/о +21.5 +1.2 26 +21 +21 комфорт 1021.3 997.2
15 11.06 СЗ 4
{7}
н/о н/о +20.7 +4.3 34 +21 +21 комфорт 1021.3 997.1
16 11.06 З 4
{7}
н/о н/о +19.5 +5.9 41 +20 +20 1021.4 997.1
17 11.06 З 4
{9}
н/о н/о +19.3 +6.1 42 +20 +20 1021.4 997.1
18 11.06 З 3
{9}
н/о н/о +18.5 +6.7 46 +19 +19 1021.7 997.3 +10.1 +22.3 0.4
19 11.06 СЗ 3
{8}
н/о н/о +17.2 +7.3 52 +17 +17 1022.0 997.5
20 11.06 З 3
{8}
н/о н/о +15.9 +7.2 56 +16 +16 1022.3 997.7
21 11.06 СЗ 2
{7}
н/о н/о +14.6 +7.4 62 +14 +14 1022.5 997.8
22 11.06 СЗ 2
{5}
н/о н/о +12.8 +7.5 70 +12 +12 1022.9 998.0
23 11.06 ЮЗ 1
{3}
н/о н/о +10.4 +7.1 80 +10 +10 1023.5 998.4
00 12.06 Ю 1
{8}
н/о н/о +8.9 +6.4 84 +8 +8 1023.5 998.2
01 12.06 Ю 1
{2}
н/о н/о +8.9 +6.7 86 +8 +8 1023.4 998.1
02 12.06 Ю 1
{2}
н/о н/о +9.3 +7.3 87 +9 +9 1022.9 997.7
03 12.06 Ю 1
{1}
н/о н/о +9.7 +7.3 85 +9 +9 1022.3 997.1
04 12.06 ЮВ 1
{1}
н/о н/о +9.8 +7.6 86 +9 +9 1022.5 997.3
05 12.06 Ю 1
{1}
н/о н/о +10.9 +8.5 85 +11 +11 1022.7 997.6
06 12.06 Ю 1
{2}
н/о н/о +12.7 +9.0 78 +13 +13 1022.0 997.1 +8.4 +18.5
07 12.06 ЮЗ 1
{3}
н/о н/о +14.7 +9.3 70 +15 +15 1021.4 996.7
08 12.06 ЮВ 2
{5}
н/о н/о +16.8 +6.3 50 +17 +17 1020.8 996.3
09 12.06 В 3
{7}
н/о н/о +17.3 +5.3 45 +17 +17 1020.4 995.9
10 12.06 В 3
{8}
н/о н/о +17.8 +3.7 39 +18 +18 1019.9 995.5
11 12.06 В 3
{8}
н/о н/о +17.2 +3.9 41 +17 +17 1019.6 995.1
12 12.06 В 4
{9}
н/о н/о +18.2 +4.4 40 +18 +18 1018.7 994.3
13 12.06 н/о
14 12.06 В 3
{7}
н/о н/о +17.3 +4.0 41 +17 +17 1017.8 993.4
15 12.06 В 2
{9}
н/о н/о +17.2 +4.9 44 +18 +18 1017.2 992.8
16 12.06 В 2
{5}
н/о н/о +16.6 +4.6 45 +17 +17 1016.8 992.4
17 12.06 ЮВ 1
{6}
н/о н/о +16.0 +4.1 45 +17 +17 1016.4 991.9
18 12.06 Ю 1
{9}
н/о н/о +15.5 +4.6 48 +16 +16 1015.7 991.2 +12.7 +19.6
19 12.06 Ю 1
{3}
н/о н/о +15.5 +5.2 50 +16 +16 1014.9 990.4
20 12.06 СЗ 1
{3}
н/о н/о +14.8 +5.1 52 +15 +15 1014.4 989.9
21 12.06 штиль 0
{1}
н/о н/о +13.6 +6.0 60 +13 +13 1013.5 988.9
22 12.06 Ю 1
{2}
н/о н/о +11.5 +5.6 67 +12 +12 1013.2 988.4
23 12.06 СЗ 1
{2}
н/о н/о +11.4 +5.7 68 +11 +11 1012.5 987.7
00 13.06 штиль 0
{3}
н/о н/о +11.3 +6.3 71 +11 +11 1011.9 987.1
01 13.06 штиль 0
{2}
н/о н/о +10.9 +6.7 75 +10 +10 1011.1 986.3
02 13.06 штиль 0
{2}
н/о н/о +10.1 +8.5 90 +9 +9 1010.1 985.3 0.1
03 13.06 С 1
{2}
н/о н/о +10.1 +8.7 91 +10 +10 1008.9 984.1 0.1
04 13.06 В 1
{5}
н/о н/о +11.3 +8.0 80 +11 +11 1007.5 982.8 0.3
05 13.06 н/о
06 13.06 С 1
{7}
н/о н/о +10.8 +9.6 92 +10 +10 1005.2 980.6 +10.0 +15.7 0.8
07 13.06 С 1
{3}
н/о н/о +12.6 +9.8 83 +13 +13 1004.7 980.2
08 13.06 С 1
{4}
н/о н/о +13.6 +9.5 76 +14 +14 1005.2 980.8
09 13.06 ЮВ 1
{4}
н/о н/о +14.2 +9.2 72 +15 +15 1005.4 981.0 0.4
10 13.06 ЮВ 2
{4}
н/о н/о +17.3 +7.4 52 +18 +18 1004.8 980.7
11 13.06 Ю 3
{6}
н/о н/о +18.7 +6.2 44 +19 +19 1005.0 981.0
12 13.06 ЮВ 3
{7}
н/о н/о +18.2 +6.4 46 +18 +18 1005.3 981.3
13 13.06 Ю 2
{5}
н/о н/о +19.6 +6.4 42 +21 +21 комфорт 1005.7 981.8
14 13.06 ЮВ 3
{7}
н/о н/о +19.9 +6.6 42 +21 +21 комфорт 1005.9 982.0
15 13.06 ЮВ 2
{7}
н/о н/о +19.9 +6.6 42 +21 +21 комфорт 1006.6 982.7
16 13.06 ЮВ 2
{6}
н/о н/о +18.6 +7.1 47 +19 +19 1007.5 983.4
17 13.06 ЮВ 2
{5}
н/о н/о +18.9 +7.4 47 +20 +20 1008.0 984.0
18 13.06 ЮВ 1
{7}
н/о н/о +18.4 +5.6 43 +20 +20 1008.8 984.7 +10.8 +20.2
19 13.06 В 2
{5}
н/о н/о +18.4 +4.6 40 +19 +19 1009.5 985.4
20 13.06 ЮВ 2
{8}
н/о н/о +18.1 +4.3 40 +19 +19 1010.0 985.8
21 13.06 З 1
{6}
н/о н/о +15.2 +7.5 60 +16 +16 1011.5 987.1
22 13.06 СЗ 1
{5}
н/о н/о +12.3 +9.0 80 +12 +12 1012.6 987.9
23 13.06 Ю 1
{4}
н/о н/о +10.3 +6.6 78 +10 +10 1013.4 988.5
00 14.06 Ю 1
{8}
н/о н/о +9.7 +5.7 76 +9 +9 1013.9 989.0
01 14.06 Ю 1
{4}
н/о н/о +8.8 +6.1 83 +8 +8 1014.2 989.2
02 14.06 СЗ 1
{2}
н/о н/о +9.3 +5.7 78 +9 +9 1014.2 989.2
03 14.06 ЮВ 1
{3}
н/о н/о +9.7 +5.3 74 +9 +9 1014.6 989.6
04 14.06 штиль 0
{3}
н/о н/о +11.1 +6.1 71 +11 +11 1014.9 990.0
05 14.06 ЮВ 2
{5}
н/о н/о +16.0 +3.8 44 +16 +16 1014.5 990.0
06 14.06 ЮВ 2
{6}
н/о н/о +17.3 +3.6 40 +18 +18 1014.7 990.4 +8.4 +18.4
07 14.06 В 2
{6}
н/о н/о +18.5 +2.8 35 +19 +19 1014.9 990.7
08 14.06 В 2
{7}
н/о н/о +18.8 +3.1 35 +20 +20 1015.3 991.1
09 14.06 ЮВ 3
{7}
н/о н/о +19.6 +2.1 31 +20 +20 1015.2 991.0
10 14.06 ЮВ 3
{7}
н/о н/о +20.1 +2.5 31 +21 +21 комфорт 1015.4 991.3
11 14.06 ЮВ 3
{7}
н/о н/о +20.7 +3.5 32 +22 +22 комфорт 1015.2 991.1
12 14.06 ЮВ 2
{7}
н/о н/о +22.2 +2.4 27 +22 +22 комфорт 1015.0 991.0
13 14.06 ЮВ 1
{4}
н/о н/о +22.1 +1.7 26 +22 +22 комфорт 1014.9 991.0
14 14.06 Ю 2
{4}
н/о н/о +23.0 +1.4 24 +22 +22 комфорт 1014.4 990.5
15 14.06 ЮЗ 2
{4}
н/о н/о +21.4 +2.7 29 +21 +21 комфорт 1014.4 990.4
16 14.06 ЮВ 2
{5}
н/о н/о +20.8 +3.5 32 +22 +22 комфорт 1014.6 990.6
17 14.06 ЮВ 2
{5}
н/о н/о +21.2 +3.4 31 +21 +21 комфорт 1014.7 990.7
18 14.06 ЮВ 1
{5}
н/о н/о +20.3 +4.0 34 +22 +22 комфорт 1014.9 990.8 +17.3 +23.3
19 14.06 СЗ 2
{4}
н/о н/о +17.5 +7.6 52 +18 +18 1015.5 991.2
20 14.06 З 1
{4}
н/о н/о +16.1 +7.3 56 +17 +17 1016.4 991.9
21 14.06 СЗ 2
{5}
н/о н/о +14.6 +7.7 63 +14 +14 1017.1 992.5
22 14.06 З 2
{4}
н/о н/о +13.4 +7.6 68 +13 +13 1017.8 993.1
23 14.06 Ю 1
{2}
н/о н/о +11.0 +7.3 78 +11 +11 1018.5 993.5
00 15.06 Ю 1
{5}
н/о н/о +9.9 +7.0 82 +9 +9 1019.1 994.0
01 15.06 штиль 0
{1}
н/о н/о +9.9 +7.5 85 +9 +9 1019.1 994.0
02 15.06 Ю 1
{2}
н/о н/о +10.0 +8.3 89 +9 +9 1019.3 994.2
03 15.06 ЮЗ 1
{2}
н/о н/о +10.2 +8.3 88 +10 +10 1019.4 994.4
04 15.06 Ю 1
{1}
н/о н/о +10.3 +8.7 90 +10 +10 1019.7 994.7
05 15.06 СВ 1
{2}
н/о н/о +13.0 +8.9 76 +13 +13 1019.3 994.5
06 15.06 С 1
{3}
н/о н/о +15.1 +9.5 69 +16 +16 1019.0 994.4 +9.4 +20.3
07 15.06 С 1
{3}
н/о н/о +17.0 +9.7 62 +18 +18 1018.8 994.3
08 15.06 С 2
{4}
н/о н/о +17.5 +8.4 55 +18 +18 1018.6 994.2
09 15.06 С 2
{4}
н/о н/о +19.0 +8.7 51 +20 +20 1018.5 994.2
10 15.06 СЗ 3
{4}
н/о н/о +20.4 +8.4 46 +22 +22 комфорт 1017.8 993.6
11 15.06 С 2
{4}
н/о н/о +22.1 +8.6 42 +23 +23 комфорт 1016.6 992.6 0.1
12 15.06 СЗ 2
{4}
н/о н/о +23.2 +8.9 40 +25 +25 комфорт 1016.1 992.2 0.1
13 15.06 СЗ 3
{5}
н/о н/о +23.4 +8.3 38 +25 +25 комфорт 1015.1 991.3
14 15.06 СЗ 2
{5}
н/о н/о +24.6 +7.7 34 +25 +25 комфорт 1014.1 990.4
15 15.06 СЗ 2
{5}
н/о н/о +24.1 +8.1 36 +25 +25 комфорт 1014.0 990.2
16 15.06 СЗ 2
{5}
н/о н/о +23.3 +8.6 39 +25 +25 комфорт 1013.6 989.8
17 15.06 СЗ 2
{5}
н/о н/о +23.6 +8.5 38 +24 +24 комфорт 1013.2 989.4
18 15.06 СЗ 3
{5}
н/о н/о +21.4 +10.0 48 +23 +23 комфорт 1012.8 988.8 +15.0 +24.6 0.2
19 15.06 СЗ 2
{5}
н/о н/о +19.9 +10.3 54 +22 +22 комфорт 1012.7 988.6
20 15.06 СЗ 1
{4}
н/о н/о +18.2 +10.1 59 +20 +20 1012.7 988.5
21 15.06 Ю 1
{2}
н/о н/о +15.2 +10.2 72 +16 +16 1013.3 988.8
22 15.06 Ю 1
{2}
н/о н/о +13.7 +9.8 77 +14 +14 1013.3 988.7
23 15.06 Ю 1 н/о н/о +12.7 +9.5 81 +13 +13 1013.0 988.3
00 16.06 ЮВ 1
{5}
н/о н/о +11.3 +8.7 84 +11 +11 1013.0 988.2
01 16.06 З 1
{3}
н/о н/о +11.6 +8.8 83 +11 +11 1013.2 988.4
02 16.06 Ю 1
{2}
н/о н/о +11.8 +9.2 84 +12 +12 1012.7 988.0
03 16.06 Ю 1
{2}
н/о н/о +12.5 +9.5 82 +13 +13 1012.2 987.5
04 16.06 Ю 1
{3}
н/о н/о +13.2 +10.2 82 +13 +13 1011.9 987.3
05 16.06 Ю 1
{2}
н/о н/о +14.4 +11.0 80 +15 +15 1012.1 987.6
06 16.06 З 1
{3}
н/о н/о +13.7 +11.6 87 +14 +14 1011.9 987.3 +11.2 +21.7 0.1
07 16.06 штиль 0
{1}
н/о н/о +14.2 +12.9 92 +14 +14 1011.6 987.1
08 16.06 СЗ 1
{2}
н/о н/о +14.2 +12.6 90 +14 +14 1011.5 987.0
09 16.06 штиль 0
{1}
н/о н/о +14.6 +13.0 90 +14 +14 1011.6 987.1 0.1
10 16.06 СЗ 1
{2}
н/о н/о +14.5 +13.2 92 +15 +15 1012.0 987.5 0.5
11 16.06 СВ 1
{2}
н/о н/о +14.4 +13.0 91 +15 +15 1012.1 987.6 0.1
12 16.06 СЗ 1
{2}
н/о н/о +14.8 +13.4 91 +15 +15 1012.4 987.9
13 16.06 штиль 0
{2}
н/о н/о +15.2 +12.3 83 +15 +15 1012.4 987.9
14 16.06 СЗ 2
{4}
н/о н/о +14.8 +12.8 88 +14 +14 1012.8 988.3
15 16.06 СЗ 1
{4}
н/о н/о +14.6 +11.8 83 +15 +15 1013.1 988.6
16 16.06 штиль 0
{3}
н/о н/о +14.2 +12.6 90 +14 +14 1013.4 988.8 0.5
17 16.06 штиль 0
{1}
н/о н/о +14.0 +12.7 92 +14 +14 1013.4 988.8 0.2
18 16.06 В 1
{4}
н/о н/о +13.9 +12.6 92 +14 +14 1013.4 988.8 +13.7 +15.3 2
19 16.06 штиль 0
{2}
н/о н/о +13.6 +12.7 94 +13 +13 1013.6 989.0 1
20 16.06 В 1
{2}
н/о н/о +13.2 +12.4 95 +13 +13 1014.0 989.3 0.9
21 16.06 штиль 0
{2}
н/о н/о +12.9 +12.1 95 +12 +12 1014.2 989.5 0.6
22 16.06 Ю 1
{1}
н/о н/о +12.4 +11.6 95 +12 +12 1014.1 989.4 0.2
23 16.06 штиль 0
{1}
н/о н/о +12.3 +11.7 96 +12 +12 1014.5 989.8 2
00 17.06 С 1
{2}
н/о н/о +12.0 +11.4 96 +12 +12 1015.0 990.2 0.8
01 17.06 ЮВ 1
{2}
н/о н/о +11.0 +10.2 95 +11 +11 1015.3 990.4 0.3
02 17.06 Ю 1
{2}
н/о н/о +10.0 +9.2 95 +9 +9 1015.1 990.1
03 17.06 Ю 1
{2}
н/о н/о +9.4 +8.8 96 +9 +9 1015.1 990.1
04 17.06 штиль 0
{2}
н/о н/о +10.0 +9.4 96 +9 +9 1015.0 990.0
05 17.06 В 1
{2}
н/о н/о +11.6 +10.5 93 +11 +11 1014.5 989.7
06 17.06 ЮВ 1
{3}
н/о н/о +12.8 +7.9 72 +13 +13 1013.9 989.2 +9.4 +13.9 6
07 17.06 ЮВ 2
{4}
н/о н/о +14.8 +7.6 62 +15 +15 1013.5 989.0
08 17.06 ЮВ 2
{3}
н/о н/о +16.4 +7.4 55 +17 +17 1012.9 988.5
09 17.06 Ю 2
{5}
н/о н/о +16.7 +5.4 47 +17 +17 1012.4 988.1
10 17.06 В 2
{5}
н/о н/о +17.8 +4.4 41 +18 +18 1012.1 987.9 0.1
11 17.06 ЮВ 2
{6}
н/о н/о +18.3 +4.1 39 +19 +19 1011.5 987.3
12 17.06 В 2
{6}
н/о н/о +17.8 +3.3 38 +18 +18 1010.9 986.7
13 17.06 Ю 1
{6}
н/о н/о +17.6 +3.2 38 +19 +19 1010.4 986.2
14 17.06 С 1
{5}
н/о н/о +16.5 +8.0 57 +17 +17 1011.0 986.7 0.1
15 17.06 СЗ 2
{4}
н/о н/о +14.3 +8.9 70 +14 +14 1010.5 986.0 0.1
16 17.06 С 2 н/о н/о +14.0 +10.0 77 +14 +14 1010.2 985.7 0.1
17 17.06 С 1
{4}
н/о н/о +12.5 +11.1 91 +12 +12 1010.1 985.5 0.9
18 17.06 СЗ 1
{6}
н/о н/о +12.1 +11.0 93 +12 +12 1010.4 985.7 +12.1 +19.2 2
19 17.06 ЮВ 1
{3}
н/о н/о +12.1 +11.2 94 +12 +12 1010.6 985.9 2
20 17.06 Ю 1
{2}
н/о н/о +12.0 +11.2 95 +12 +12 1010.7 986.0 2

 

Местоположение метеостанции Стрын-Крокен (Норвегия): широта 61.92 долгота 6.56 высота над уровнем моря 208 м.

В архиве по умолчанию представлена погода в Стрын-Крокене за последнюю неделю. Архивные данные за месяц целиком и за предыдущие месяцы, начиная с января 2011 года, Вы можете получить, выбрав интересующий диапазон дат из раскрывающегося списка и нажав кнопку "Ввод!".


*Определитесь, кто Вы:
робот инопланетянин человек

Внимание! Время в таблицах - всемирное. Для получения местного времени необходимо прибавить поправку, которая равна 1 ч.

Смотрите также архив погоды в соседних городах и на ближайших метеорологических станциях:

Погода в Сандан аэропорту (Норвегия) (26 км)
Погода в Аэропорту Орста-Волда (Норвегия) (38 км)
Погода в Фиске (Норвегия) (55 км)
Погода в Тафьорде (Норвегия) (57 км)
Погода во Фьерлэнде (Норвегия) (57 км)
Погода в Гротли (Норвегия) (59 км)
Погода во Флурё (Норвегия) (60 км)
Погода в Олесунне (Норвегия) (64 км)
Погода в Брате (Норвегия) (69 км)
Погода в Лебергсфелле (Норвегия) (69 км)

Пояснения к столбцам:

Ветер - указаны скорость ветра в м/с - средняя за 10 мин, порывы в срок и между сроками (в фигурных скобках) и направление, откуда дует ветер: С - северный, СВ - северо-восточный, В - восточный, ЮВ - юго-восточный, Ю - южный, ЮЗ - юго-западный, З - западный, СЗ - северо-западный.
Видимость - горизонтальная дальность видимости в метрах или километрах. При видимости от 1 до 10 км при отсутствии осадков обычно наблюдается дымка, при ухудшении видимости до 1 км и менее - туман. В сухую погоду видимость может ухудшаться дымом, пылью или мглою.
Явления - указаны атмосферные явления, наблюдавшиеся в срок или в последний час перед сроком; фигурными скобками обозначены явления, наблюдавшиеся между сроками (за 1-3 часа до срока); квадратными скобками обозначены град или гололедные отложения с указанием их диаметра в мм.
Облачность - указаны через наклонную черту общая и нижняя облачность в баллах и высота нижней границы облаков в метрах; квадратными скобками обозначены формы облаков: Ci - перистые, Cs - перисто-слоистые, Cc - перисто-кучевые, Ac - высококучевые, As - высокослоистые, Sc - слоисто-кучевые, Ns - слоисто-дождевые, Cu - кучевые, Cb - кучево-дождевые. Подробнее классификацию облаков см. в Атласе облаков (PDF).
T - Температура воздуха - температура, измеренная на высоте 2 м над землей.
Td - Температура точки росы - температура, при понижении до которой содержащийся в воздухе водяной пар достигнет насыщения.
f - Относительная влажность воздуха - влажноcть воздуха, измеренная на высоте 2 м над землей.
Te - Эффективная температура - температура, которую ощущает одетый по сезону человек в тени. Характеристика душности погоды. При расчете учитывается влияние влажности воздуха и скорости ветра на теплоощущения человека.
Tes - Эффективная температура на солнце - температура, которую ощущает человек, с поправкой на солнечный нагрев. Характеристика знойности погоды. Зависит от высоты солнца над горизонтом, облачности и скорости ветра. Ночью, в пасмурную погоду, а также при ветре 12 м/с и более поправка равна нулю.
P - Атмосферное давление - приведенное к уровню моря атмосферное давление.
Po - Атмосферное давление - измеренное на уровне метеостанции атмосферное давление.
Tmin - Минимальная температура - минимум температуры воздуха на высоте 2 м над землей.
Tmax - Максимальная температура - максимум температуры воздуха на высоте 2 м над землей.
R - Количество осадков - Количество выпавших осадков за период времени, мм. При наведении курсора мыши на число - период времени, за который выпало указанное количество осадков.
R24 - Количество осадков - Количество выпавших осадков за 24 часа, мм.
S - Снежный покров - Высота снежного покрова, см. При наведении курсора мыши на число - состояние снежного покрова и степень покрытия местности в баллах.